Location: Ferma
(41.9500°N, 44.5167°E)
Time: 15:25:19
(UTC+00:00)

COSMO-SKYMED 1 - Pass Details

Date: 24 October 2021
Orbit: 621 x 623 km, 97.9° (Epoch: 07 December)

Event Time Altitude Azimuth Distance (km) Brightness Sun altitude
Rises 14:37:08 0° 20° (NNE) 2,913 5.7 -6.3°
Reaches altitude 10° 14:39:28 10° 29° (NNE) 2,001 4.8 -6.7°
Maximum altitude 14:43:32 38° 98° (E) 947 3.1 -7.5°
Drops below altitude 10° 14:47:35 10° 167° (SSE) 1,985 5.1 -8.2°
Sets 14:49:52 0° 175° (S) 2,886 6.0 -8.7°
